Regional Weather Roundup
Issued by NWS

Home | Current Version | Previous Version | Text Only | Print | Product List | Glossary On
Versions: 1 2 3 4 5 6 7 8 9 10 11 12 13 14 15 16 17 18 19 20 21 22 23 24 25 26 27
000
ASUS45 KSLC 221710
RWRUT

UTAH REGIONAL WEATHER ROUNDUP
NATIONAL WEATHER SERVICE SALT LAKE CITY UT
1100 AM MDT SUN OCT 22 2017

UTZ001>011-023>025-221800-

NORTHERN UTAH

CITY           SKY/WX    TMP DP  RH WIND       PRES   REMARKS
BRIGHAM CITY   CLOUDY    55  16  22 SW10      30.38S
HILL AFB       NOT AVBL
LOGAN          CLOUDY    54  24  31 CALM      30.36F
OGDEN          MOSUNNY   58  19  22 S15       30.37S
SALT LAKE CITY PTSUNNY   57  21  24 SE13      30.37S
TOOELE VALLEY  SUNNY     55  28  35 SE5       30.37S
WENDOVER       MOSUNNY   48  19  31 CALM      30.37F
WEST JORDAN    SUNNY     55  25  31 S15       30.40S

$$

UTZ011>015-024>027-221800-

CENTRAL/NORTHEAST UTAH

CITY           SKY/WX    TMP DP  RH WIND       PRES   REMARKS
PROVO AIRPORT  PTSUNNY   51  25  36 VRB5      30.43S
MOAB/CANYONLAN SUNNY     51  13  21 SE7       30.43R
DELTA          MOSUNNY   46  18  31 CALM      30.43S
PRICE          SUNNY     51  18  27 VRB5      30.43S
ROOSEVELT      SUNNY     45  19  36 E3        30.43S
VERNAL         SUNNY     46  17  31 VRB5      30.41F

$$

UTZ013>016-019>022-027-221800-

SOUTHERN UTAH

CITY           SKY/WX    TMP DP  RH WIND       PRES   REMARKS
BRYCE CANYON   SUNNY     54  26  34 CALM      30.50S
CEDAR CITY     SUNNY     53  23  31 E3        30.42S
MILFORD        SUNNY     52  16  24 S9        30.42S
ST GEORGE      SUNNY     56  16  20 CALM      30.39F
HANKSVILLE     SUNNY     48  16  27 S3        30.45F
BLANDING         N/A     53  10  18 CALM      30.52S

$$

REGIONAL REPORTS     COLORADO/ARIZONA

CITY           SKY/WX    TMP DP  RH WIND       PRES   REMARKS
CRAIG, CO      SUNNY     45  21  38 NE7       30.43S
GRAND JUNCTION SUNNY     50  17  27 SE12      30.45F
RIFLE, CO      SUNNY     42  25  50 CALM      30.48S
MONTROSE, CO   SUNNY     46  13  26 VRB3      30.49F
CORTEZ, CO     SUNNY     55  13  18 W9        30.44F
COLORADO CITY    N/A     61  14  16 SE8       30.45S
PAGE, AZ       SUNNY     58  16  19 VRB3      30.43S
GRAND CANYON   SUNNY     60  17  18 NE3       30.49R
KINGMAN, AZ    SUNNY     65  15  14 N8        30.35S
FLAGSTAFF, AZ  SUNNY     56  10  16 E8        30.50R

$$

REGIONAL REPORTS    NEVADA/IDAHO/WYOMING

CITY           SKY/WX    TMP DP  RH WIND       PRES   REMARKS
LAS VEGAS, NV  SUNNY     68  22  17 CALM      30.33F
ELY, NY        SUNNY     50  30  46 VRB5      30.48S
ELKO, NV       SUNNY     50  33  52 VRB3      30.42S
POCATELLO, ID  PTSUNNY   57  31  37 S22G29    30.29R
BURLEY, ID     MOSUNNY   57  38  48 SW14      30.29R
FORT BRIDGER,  PTSUNNY   52  32  45 W24G31    30.39F
EVANSTON, WY   CLOUDY    47  26  44 SW20      30.39R
ROCK SPRINGS,  CLOUDY    47  26  44 W23G33    30.34S
KEMMERER, WY   CLOUDY    43  28  56 W23G31    30.35F

$$




USA.gov is the U.S. government's official web portal to all federal, state and local government web resources and services.